Regional Weather Roundup
Issued by NWS Sioux Falls, SD

Home | Current Version | Previous Version | Text Only | Print | Product List | Glossary Off
Versions: 1 2 3 4 5 6 7 8 9 10 11 12 13 14 15 16 17 18 19 20 21 22 23 24 25 26 27 28 29 30 31 32 33 34 35 36 37 38 39 40 41 42 43 44 45 46 47 48 49 50

000
ASUS43 KFSD 202210
RWRFSD

WEATHER ROUNDUP FOR SE SOUTH DAKOTA/SW MINNESOTA/NW IOWA
NATIONAL WEATHER SERVICE SIOUX FALLS SD
500 PM CDT MON OCT 20 2014

NOTE: "FAIR" INDICATES FEW OR NO CLOUDS BELOW 12,000 FEET WITH NO
SIGNIFICANT WEATHER AND OR OBSTRUCTIONS TO VISIBILITY.


SDZ038>040-050-052>070-202300-
SOUTHEAST SOUTH DAKOTA

CITY           SKY/WX    TMP DP  RH WIND       PRES   REMARKS
CHAMBERLAIN    SUNNY     72  38  28 S8        30.00F
HURON          SUNNY     71  32  23 E5        30.02F
MADISON        FAIR      68  36  30 NW7       30.05S
MITCHELL       SUNNY     71  35  26 SE5       30.03F
SIOUX FALLS    SUNNY     69  38  32 W7        30.04S
WINNER         FAIR      78  38  23 S10       30.00F
YANKTON        SUNNY     70  37  30 W3        30.04S
$$

MNZ071-072-080-081-089-090-097-098-202300-
SOUTHWEST MINNESOTA

CITY           SKY/WX    TMP DP  RH WIND       PRES   REMARKS
FAIRMONT       SUNNY     66  30  26 NW12      30.01S
JACKSON        SUNNY     68  34  28 NW8       30.03S
LUVERNE        SUNNY     72  32  23 N7        30.04S
MARSHALL       SUNNY     68  36  30 N14       30.02S
MONTEVIDEO     SUNNY     70  39  32 N9        30.03R
PIPESTONE      SUNNY     70  34  26 N7        30.04S
REDWOOD FALLS  SUNNY     67  39  35 NW12      30.01S
TRACY          SUNNY     68  37  31 NW10      30.03S
WINDOM         SUNNY     66  36  32 NW13      30.03S
WORTHINGTON    SUNNY     68  36  30 NW13      30.04S
$$

IAZ001>003-012>014-020>022-031-032-NEZ013-014-SDZ071-202300-
NORTHWEST IOWA

CITY           SKY/WX    TMP DP  RH WIND       PRES   REMARKS
CHEROKEE       SUNNY     68  40  35 NW8       30.03S
DENISON        SUNNY     68  39  34 N9        30.02S
ESTHERVILLE    SUNNY     67  37  33 NW10      30.02S
LE MARS        SUNNY     70  39  32 NW7       30.04S HAZE
ORANGE CITY    SUNNY     70  36  28 N7        30.04S
SHELDON        SUNNY     70  37  30 N7G14     30.02S
SIOUX CITY     SUNNY     72  40  31 N8        30.04S
SPENCER        SUNNY     70  38  31 N13       30.03S
STORM LAKE     SUNNY     68  36  30 NW10      30.04S
$$

ABBREVIATIONS USED IN REMARKS
   TC - TEMPERATURE IN CELSIUS
  WCI - WIND CHILL INDEX
   HX - HEAT INDEX
  VSB - VISIBILITY



USA.gov is the U.S. government's official web portal to all federal, state and local government web resources and services.